DateTimeUTC,F1_A11,F1_S11,BsB_S11,BsG_S11,BsR_S11,BbsB_S11,BbsG_S11,BbsR_S11,BaB_A11,BaG_A11,BaR_A11,Tu_S11,T_S11,Uu_S11,U_S11,P_S11,T1_A11
2021-12-04T07:00:00Z,00000200,21000000,,,,,,,0000.11,0000.29,0000.19,19.0,25.9,,00.0,0634.7,31.0
2021-12-04T07:01:00Z,00000200,21000000,,,,,,,0000.32,0000.59,-000.04,19.0,26.0,,00.0,0634.8,31.0
2021-12-04T07:02:00Z,00000200,21000000,,,,,,,0000.14,-000.45,0000.18,19.0,26.0,,00.0,0634.8,31.0
2021-12-04T07:03:00Z,00000200,61000000,,,,,,,0000.54,0000.44,0000.34,19.0,26.0,,00.0,0634.8,31.0
2021-12-04T07:04:00Z,00000200,41000000,0000.63,0000.19,-000.16,-000.28,-000.06,-000.27,0000.31,0000.67,0000.35,19.3,25.8,,00.0,0635.7,31.0
2021-12-04T07:05:00Z,00000200,01000000,0000.34,0000.11,0000.06,0000.02,0000.07,-000.21,0000.25,0000.14,-000.15,19.4,25.8,,00.0,0635.8,31.0
2021-12-04T07:06:00Z,00000200,01000000,0000.45,0000.37,-000.15,-000.26,0000.06,-000.16,0000.34,0000.14,0000.43,19.3,25.8,,00.0,0635.8,31.0
2021-12-04T07:07:00Z,00000200,01000000,0000.46,0000.55,-000.14,0000.01,-000.10,-000.31,-000.28,-000.01,-000.06,19.3,25.8,,00.0,0635.8,31.0
2021-12-04T07:08:00Z,00000200,01000000,0000.56,0000.44,0000.26,0000.05,-000.01,-000.17,0000.41,0000.31,0000.44,19.3,25.7,,00.0,0635.8,31.0
2021-12-04T07:09:00Z,00000200,01000000,-000.30,0000.14,0000.34,-000.27,-000.05,0000.13,0000.06,0000.17,-000.07,19.3,25.7,,00.0,0635.7,31.0
2021-12-04T07:10:00Z,00000200,01000000,0000.16,0000.11,0000.29,-000.39,-000.12,0000.04,0000.45,0000.26,0000.06,19.4,25.8,,00.0,0635.7,31.0
2021-12-04T07:11:00Z,00000200,01000000,0000.25,-000.03,-000.01,0000.26,0000.05,0000.02,0000.37,0000.10,0000.41,19.4,25.7,,00.0,0635.7,31.0
2021-12-04T07:12:00Z,00000200,01000000,-000.29,0000.16,0000.05,0000.32,-000.18,-000.13,-000.10,0000.27,0000.04,19.4,25.7,,00.0,0635.7,31.0
2021-12-04T07:13:00Z,00000200,01000000,-000.08,0000.15,-000.23,-000.24,-000.01,-000.31,0000.47,0000.46,0000.09,19.4,25.7,,00.0,0635.7,31.0
2021-12-04T07:14:00Z,00000200,01000000,0000.82,0000.12,0000.25,0000.13,0000.13,-000.18,0000.18,-000.19,0000.17,19.5,25.8,,00.0,0635.7,31.0
2021-12-04T07:15:00Z,00000200,01000000,0000.00,0000.44,0000.09,-000.85,-000.13,-000.03,0000.11,0000.41,0000.02,19.5,25.8,,00.0,0635.7,31.0
2021-12-04T07:16:00Z,00000200,01000000,0001.01,-000.03,0000.22,0000.84,0000.15,-000.01,0000.09,0000.12,0000.03,19.5,25.8,,00.0,0635.8,31.0
2021-12-04T07:17:00Z,00000200,01000000,0000.68,0000.51,-000.19,-000.81,-000.09,0000.01,-000.12,0000.06,0000.15,19.5,25.8,,00.0,0635.8,31.0
2021-12-04T07:18:00Z,00000200,01000000,-000.32,0000.23,-000.37,0000.22,-000.09,-000.06,0000.39,0000.06,-000.04,19.6,25.8,,00.0,0635.8,31.0
2021-12-04T07:19:00Z,00000200,01000000,-000.21,-000.03,0000.04,-000.49,-000.34,-000.28,0000.21,0000.16,0000.45,19.6,25.8,,00.0,0635.8,31.0
2021-12-04T07:20:00Z,00000200,01000000,0000.39,0000.53,0000.37,0001.01,0000.01,-000.05,0000.01,0000.18,-000.20,19.6,25.8,,00.0,0635.8,31.0
2021-12-04T07:21:00Z,00000200,01000000,0000.36,0000.31,0000.29,-000.58,-000.04,0000.22,0000.06,0000.12,0000.33,19.7,25.8,,00.0,0635.8,31.0
2021-12-04T07:22:00Z,00000200,01000000,0000.77,0000.15,0000.01,0000.15,-000.27,0000.09,0000.23,0000.12,0000.01,19.7,25.8,,00.0,0635.8,31.0
2021-12-04T07:23:00Z,00000200,01000000,0000.08,0000.19,0000.11,0000.66,-000.22,-000.37,-000.01,0000.16,0000.01,19.7,25.8,,00.0,0635.8,31.0
2021-12-04T07:24:00Z,00000200,01000000,-000.47,0000.31,0000.00,0000.06,0000.11,-000.10,0000.19,0000.39,0000.20,19.7,25.9,,00.0,0635.8,31.0
2021-12-04T07:25:00Z,00000200,01000000,-000.24,-000.02,0000.16,0000.12,-000.16,-000.41,0000.08,-000.39,-000.06,19.8,25.9,,00.0,0635.8,31.0
2021-12-04T07:26:00Z,00000200,01000000,-000.32,-000.08,0000.25,0000.61,-000.15,-000.25,-000.02,-000.10,0000.01,19.8,25.9,,00.0,0635.8,31.0
2021-12-04T07:27:00Z,00000200,01000000,-000.04,0000.33,0000.21,0000.04,-000.07,-000.31,0000.21,0000.47,-000.06,19.8,25.9,,00.0,0635.8,31.0
2021-12-04T07:28:00Z,00000200,01000000,-000.99,0000.23,0000.32,0000.06,0000.07,0000.28,-000.04,0000.17,0000.07,19.8,25.9,,00.0,0635.8,31.0
2021-12-04T07:29:00Z,00000200,01000000,-000.50,0000.33,0000.22,-000.04,0000.13,-000.12,0000.34,-000.33,-000.07,19.8,25.9,,00.0,0635.8,31.0
2021-12-04T07:30:00Z,00000200,01000000,0000.43,0000.13,0000.26,0000.57,-000.10,0000.02,0000.18,0000.30,0000.70,19.9,25.9,,00.0,0635.8,31.1
2021-12-04T07:31:00Z,00000200,01000000,0000.47,0000.42,0000.20,-000.34,-000.22,-000.29,0000.16,0000.18,-000.29,19.9,25.9,,00.0,0635.9,31.1
2021-12-04T07:32:00Z,00000200,01000000,-000.28,0000.14,0000.48,0000.38,0000.03,-000.02,0000.28,0000.28,0000.02,19.9,26.0,,00.0,0635.9,31.1
2021-12-04T07:33:00Z,00000200,01010000,0000.05,0000.23,0000.16,0000.76,0000.15,0000.25,-000.02,0000.12,0000.27,19.9,26.0,,00.0,0635.8,31.1
2021-12-04T07:34:00Z,00000200,01000000,0000.59,-000.24,-000.03,-000.10,-000.19,-000.13,0000.25,-000.04,0000.06,20.0,26.0,,00.0,0635.9,31.1
2021-12-04T07:35:00Z,00000200,01000000,0000.45,0000.26,0000.44,-000.43,-000.32,0000.23,0000.29,-000.06,0000.25,20.0,26.0,,00.0,0635.9,31.1
2021-12-04T07:36:00Z,00000200,01000000,0000.37,0000.02,0000.05,0000.37,0000.04,-000.13,-000.32,0000.31,-000.21,20.0,26.0,,00.0,0636.0,31.1
2021-12-04T07:37:00Z,00000200,01000000,0000.88,0000.14,0000.18,0000.25,-000.42,-000.10,0000.26,0000.13,0000.37,20.0,26.1,,00.0,0636.0,31.1
2021-12-04T07:38:00Z,00000200,01000000,0000.85,0000.21,-000.00,-000.49,-000.05,0000.03,0000.08,0000.13,-000.05,20.1,26.1,,00.0,0636.0,31.1
2021-12-04T07:39:00Z,00000200,01000000,0000.17,0000.19,0000.21,-000.27,-000.27,-000.02,0000.12,0000.06,0000.06,20.1,26.1,,00.0,0636.0,31.1
2021-12-04T07:40:00Z,00000200,01000000,-000.08,0000.33,0000.33,-000.20,-000.20,0000.19,0000.11,-000.23,-000.13,20.1,26.1,,00.0,0636.0,31.1
2021-12-04T07:41:00Z,00000200,01000000,-000.15,0000.08,0000.19,-000.02,-000.12,-000.12,0000.22,0000.36,0000.24,20.1,26.1,,00.0,0635.9,31.1
2021-12-04T07:42:00Z,00000200,01000000,0000.23,0000.48,0000.42,0000.40,0000.09,0000.18,-000.21,0000.37,-000.19,20.1,26.1,,00.0,0635.9,31.1
2021-12-04T07:43:00Z,00000200,01000000,-000.05,-000.32,0000.15,-000.09,0000.01,0000.16,0000.32,-000.11,0000.16,20.2,26.2,,00.0,0636.0,31.1
2021-12-04T07:44:00Z,00000200,01000000,-000.03,0000.17,0000.16,0000.57,-000.34,0000.22,-000.08,-000.05,0000.27,20.2,26.2,,00.0,0635.9,31.1
2021-12-04T07:45:00Z,00000200,01000000,0000.42,0000.51,0000.21,0000.11,-000.18,0000.14,0000.12,0000.03,-000.13,20.2,26.2,,00.0,0635.9,31.1
2021-12-04T07:46:00Z,00000200,01000000,-000.02,0000.09,0000.15,0000.46,-000.22,-000.09,0000.07,0000.29,0000.19,20.3,26.2,,00.0,0635.9,31.1
2021-12-04T07:47:00Z,00000200,01000000,0000.84,0000.29,0000.54,-000.11,0000.07,0000.14,0000.36,-000.32,-000.04,20.3,26.2,,00.0,0636.0,31.1
2021-12-04T07:48:00Z,00000200,01000000,0000.41,0000.38,0000.24,-000.12,-000.03,-000.10,0000.10,0000.65,0000.35,20.3,26.3,,00.0,0636.0,31.1
2021-12-04T07:49:00Z,00000200,01000000,0000.62,0000.51,-000.14,0000.53,-000.06,0000.03,-000.37,-000.41,-000.12,20.3,26.3,,00.0,0636.0,31.1
2021-12-04T07:50:00Z,00000200,01000000,0000.34,0000.26,0000.02,-000.01,-000.20,0000.12,0000.56,0000.20,-000.12,20.3,26.3,,00.0,0636.0,31.1
2021-12-04T07:51:00Z,00000200,01000000,0000.49,0000.14,0000.25,0000.21,0000.24,0000.08,-000.55,0000.19,0000.02,20.3,26.3,,00.0,0636.0,31.1
2021-12-04T07:52:00Z,00000200,01000000,0000.28,0000.06,-000.02,-000.29,-000.06,-000.09,0000.45,-000.15,0000.08,20.3,26.3,,00.0,0636.0,31.1
2021-12-04T07:53:00Z,00000200,01000000,0000.59,0000.14,0000.03,0000.81,-000.04,-000.23,-000.10,0000.26,-000.05,20.2,26.3,,00.0,0636.0,31.1
2021-12-04T07:54:00Z,00000200,01000000,0000.28,-000.13,0000.30,0000.54,-000.14,0000.18,0000.06,-000.03,0000.37,20.2,26.3,,00.0,0636.0,31.1
2021-12-04T07:55:00Z,00000200,01000000,0000.09,0000.40,0000.22,0000.18,-000.08,0000.11,0000.31,-000.04,-000.17,20.2,26.3,,00.0,0636.0,31.1
2021-12-04T07:56:00Z,00000200,01000000,0001.03,0000.37,0000.25,0000.19,-000.02,-000.10,0000.03,0000.26,0000.37,20.3,26.3,,00.0,0636.0,31.1
2021-12-04T07:57:00Z,00000200,41000000,,,,,,,0000.85,0000.30,0000.06,20.3,26.3,,00.0,0636.0,31.1
2021-12-04T07:58:00Z,00000200,61000000,,,,,,,-000.45,0000.03,-000.19,20.0,26.4,,00.0,0635.0,31.1
2021-12-04T07:59:00Z,00000200,21000000,,,,,,,0000.01,-000.24,0000.05,20.0,26.5,,00.0,0635.0,31.1
